EUTELSAT KONNECT VHTS

Last updated on Sun Jul 06 2025 00:02:47 GMT+0000 (Coordinated Universal Time)

1 53765U 22110A 25186.04836378 .00000033 00000+0 00000+0 0 9997 2 53765 0.0544 95.3800 0003027 13.4562 194.6159 1.00275496 3348
UTC large
Height (km)
Speed (km/s)
/
Latitude / Longitude
Inclination (degrees)
Orbital Period (minutes)
Azimuth
Elevation
Range (km)
Doppler Factor

Next 0 passes for location: London (51.5072 / 0.1276)

Sorry there are no passes over London.